contact:dominique.lefevre@mio.osupytheas.fr, maurice.libes@osupytheas.fr, didier.mallarino@osupytheas.fr
Project:EMSO http://www.emso-fr.org/EMSO-France
Depth: 2436.0 m
Title:EMSO Ligure Ouest : Data MII capteur AQUADOPP
Date,Latitude,Longitude,X_East,Y_North,Z_Up,Amplitude_X,Amplitude_Y,Amplitude_Z,Batterie,SoundSpeed,Heading,Pitch,Roll,Pressure,TIS,Speed,Direction
, degrees North, degrees East, m.s-1, m.s-1,m.s-1, 1, 1, 1, Volt, m.s-1, degree, degree, degree, dbar, degree_C, m.s-1, degree
2022-09-28T00:04:03,42.805,6.029,-0.042,-0.014,-0.025,103.0,100.0,100.0,13.4,1505.2,321.7,-0.8,1.8,2470.988,13.29,0.044,251.6
2022-09-28T00:07:03,42.805,6.029,-0.009,-0.024,-0.006,101.0,101.0,102.0,13.4,1505.2,327.9,-0.7,1.8,2471.007,13.29,0.025,200.6
2022-09-28T00:10:03,42.805,6.029,-0.029,-0.002,0.009,101.0,100.0,99.0,13.3,1505.2,324.6,-0.8,1.8,2470.996,13.29,0.029,266.1
2022-09-28T00:13:03,42.805,6.029,-0.031,-0.016,0.024,101.0,102.0,100.0,13.4,1505.2,324.1,-0.7,1.8,2470.973,13.29,0.034,242.7
2022-09-28T00:16:03,42.805,6.029,-0.003,0.0,0.02,101.0,100.0,102.0,13.3,1505.2,327.6,-0.7,1.8,2470.975,13.29,0.003,270.0
2022-09-28T00:19:03,42.805,6.029,-0.025,-0.01,-0.01,101.0,101.0,99.0,13.4,1505.2,323.7,-0.8,1.8,2470.981,13.29,0.026,248.2
2022-09-28T00:22:03,42.805,6.029,-0.011,-0.029,-0.004,102.0,98.0,100.0,13.4,1505.2,331.9,-0.8,1.8,2470.952,13.29,0.031,200.8
2022-09-28T00:25:03,42.805,6.029,0.0,0.0,0.053,98.0,102.0,100.0,13.4,1505.2,328.0,-0.8,1.8,2470.99,13.29,0.0,0.0
2022-09-28T00:28:03,42.805,6.029,-0.006,-0.004,0.001,100.0,100.0,100.0,13.3,1505.2,329.6,-0.8,1.8,2470.965,13.29,0.007,236.3
2022-09-28T00:31:03,42.805,6.029,-0.006,-0.016,0.0,104.0,101.0,99.0,13.3,1505.2,329.1,-0.7,1.8,2470.93,13.29,0.017,200.6
2022-09-28T00:34:03,42.805,6.029,-0.013,-0.007,0.014,102.0,100.0,99.0,13.4,1505.2,319.9,-0.8,1.8,2470.961,13.29,0.014,241.7
2022-09-28T00:37:03,42.805,6.029,-0.011,0.0,0.0,100.0,104.0,99.0,13.4,1505.2,323.0,-0.8,1.8,2470.949,13.29,0.011,270.0
2022-09-28T00:40:03,42.805,6.029,-0.011,-0.032,-0.018,99.0,101.0,100.0,13.4,1505.2,328.6,-0.8,1.9,2470.938,13.29,0.033,199.0
2022-09-28T00:43:03,42.805,6.029,-0.024,-0.015,-0.021,101.0,100.0,100.0,13.3,1505.2,332.3,-0.7,1.8,2470.878,13.29,0.028,238.0
2022-09-28T00:46:03,42.805,6.029,-0.021,-0.004,0.03,101.0,100.0,100.0,13.3,1505.2,328.1,-0.8,1.8,2470.943,13.29,0.021,259.2
2022-09-28T00:49:03,42.805,6.029,-0.01,-0.001,0.015,102.0,102.0,99.0,13.4,1505.2,322.2,-0.7,1.8,2470.925,13.29,0.01,264.3
2022-09-28T00:52:03,42.805,6.029,-0.035,-0.007,-0.017,99.0,101.0,99.0,13.3,1505.2,320.7,-0.8,1.8,2470.938,13.29,0.035,258.7
2022-09-28T00:55:03,42.805,6.029,-0.024,-0.009,0.008,100.0,100.0,99.0,13.3,1505.2,319.2,-0.8,1.8,2470.913,13.29,0.025,249.4
2022-09-28T00:58:03,42.805,6.029,0.003,-0.028,0.015,104.0,98.0,99.0,13.3,1505.2,320.5,-0.7,1.8,2470.919,13.29,0.028,173.9
2022-09-28T01:04:03,42.805,6.029,-0.031,-0.004,-0.002,101.0,103.0,100.0,13.4,1505.2,329.3,-0.8,1.8,2470.938,13.29,0.031,262.7
2022-09-28T01:07:03,42.805,6.029,-0.032,-0.004,-0.018,100.0,103.0,100.0,13.3,1505.2,321.3,-0.8,1.8,2470.975,13.29,0.032,262.9
2022-09-28T01:10:03,42.805,6.029,-0.034,-0.032,-0.034,100.0,101.0,100.0,13.4,1505.2,327.8,-0.8,1.8,2470.919,13.29,0.046,226.7
2022-09-28T01:13:03,42.805,6.029,-0.029,-0.004,0.0,101.0,102.0,98.0,13.4,1505.2,322.8,-0.7,1.8,2470.955,13.29,0.029,262.2
2022-09-28T01:16:03,42.805,6.029,-0.027,-0.016,0.013,100.0,100.0,99.0,13.3,1505.2,321.2,-0.7,1.8,2470.926,13.29,0.031,239.3
2022-09-28T01:19:03,42.805,6.029,-0.004,0.007,0.052,103.0,100.0,99.0,13.4,1505.2,325.7,-0.7,1.8,2470.934,13.29,0.008,330.3
2022-09-28T01:22:03,42.805,6.029,-0.021,-0.003,0.007,101.0,101.0,99.0,13.4,1505.2,329.3,-0.8,1.8,2470.923,13.29,0.021,261.9
2022-09-28T01:25:03,42.805,6.029,-0.018,-0.031,-0.042,99.0,101.0,100.0,13.3,1505.2,319.8,-0.7,1.8,2470.913,13.29,0.035,210.1
2022-09-28T01:28:03,42.805,6.029,-0.027,-0.007,0.001,100.0,100.0,99.0,13.3,1505.2,317.4,-0.8,1.8,2470.944,13.29,0.027,255.5
2022-09-28T01:31:03,42.805,6.029,-0.021,0.002,0.004,100.0,100.0,100.0,13.3,1505.2,326.8,-0.7,1.8,2470.929,13.29,0.021,275.4
2022-09-28T01:34:03,42.805,6.029,0.006,-0.027,-0.015,100.0,101.0,98.0,13.4,1505.2,327.2,-0.8,1.8,2470.912,13.29,0.027,167.5
2022-09-28T01:37:03,42.805,6.029,-0.024,-0.002,0.021,100.0,99.0,100.0,13.4,1505.2,323.3,-0.7,1.8,2470.903,13.29,0.024,265.2
2022-09-28T01:40:03,42.805,6.029,-0.01,0.005,0.028,101.0,103.0,98.0,13.4,1505.2,327.8,-0.8,1.8,2470.906,13.29,0.011,296.6
2022-09-28T01:43:03,42.805,6.029,-0.019,0.0,0.005,100.0,100.0,99.0,13.4,1505.2,329.1,-0.8,1.8,2470.872,13.3,0.019,270.0
2022-09-28T01:46:03,42.805,6.029,-0.031,-0.019,0.014,99.0,101.0,100.0,13.4,1505.2,325.1,-0.8,1.8,2470.895,13.3,0.036,238.5
2022-09-28T01:49:03,42.805,6.029,-0.034,-0.019,-0.026,101.0,100.0,99.0,13.4,1505.2,317.1,-0.7,1.8,2470.884,13.3,0.038,240.8
2022-09-28T01:52:03,42.805,6.029,-0.003,-0.004,0.001,99.0,100.0,99.0,13.4,1505.2,327.8,-0.7,1.8,2470.926,13.29,0.005,216.9
2022-09-28T01:55:03,42.805,6.029,-0.02,0.013,0.009,99.0,101.0,100.0,13.4,1505.2,332.5,-0.8,1.8,2470.896,13.29,0.023,303.0
2022-09-28T01:58:03,42.805,6.029,-0.023,-0.01,-0.003,100.0,101.0,100.0,13.3,1505.2,333.1,-0.8,1.8,2470.888,13.29,0.025,246.5
2022-09-28T02:04:03,42.805,6.029,-0.025,-0.024,0.005,100.0,101.0,99.0,13.3,1505.2,324.0,-0.7,1.8,2470.954,13.29,0.034,226.2
2022-09-28T02:07:03,42.805,6.029,-0.003,0.006,0.028,99.0,100.0,100.0,13.4,1505.2,327.1,-0.8,1.8,2470.92,13.29,0.006,333.4
2022-09-28T02:10:03,42.805,6.029,-0.02,-0.005,-0.001,105.0,100.0,99.0,13.3,1505.2,330.1,-0.8,1.8,2470.91,13.29,0.02,256.0
2022-09-28T02:13:03,42.805,6.029,-0.015,-0.012,0.033,99.0,100.0,100.0,13.4,1505.2,317.8,-0.8,1.8,2470.864,13.29,0.019,231.3
2022-09-28T02:16:03,42.805,6.029,-0.029,-0.014,0.024,101.0,101.0,100.0,13.4,1505.2,319.8,-0.8,1.8,2470.919,13.29,0.032,244.2
2022-09-28T02:19:03,42.805,6.029,-0.01,0.009,0.022,99.0,99.0,101.0,13.4,1505.2,327.4,-0.8,1.8,2470.916,13.29,0.013,312.0
2022-09-28T02:22:03,42.805,6.029,-0.02,-0.029,-0.029,100.0,101.0,99.0,13.4,1505.2,322.3,-0.8,1.8,2470.879,13.29,0.035,214.6
2022-09-28T02:25:03,42.805,6.029,-0.035,-0.017,0.003,100.0,100.0,100.0,13.4,1505.2,319.4,-0.7,1.8,2470.866,13.29,0.038,244.1
2022-09-28T02:28:03,42.805,6.029,-0.018,-0.016,-0.013,101.0,100.0,99.0,13.4,1505.2,328.1,-0.8,1.8,2470.904,13.29,0.024,228.4
2022-09-28T02:31:03,42.805,6.029,-0.027,-0.004,0.043,101.0,102.0,99.0,13.4,1505.2,327.9,-0.8,1.8,2470.943,13.29,0.027,261.6
2022-09-28T02:34:03,42.805,6.029,-0.014,-0.025,-0.018,103.0,101.0,100.0,13.4,1505.2,323.2,-0.7,1.8,2470.86,13.29,0.028,209.3
2022-09-28T02:37:03,42.805,6.029,-0.023,-0.004,-0.009,100.0,100.0,99.0,13.4,1505.2,321.5,-0.8,1.8,2470.851,13.29,0.023,260.1
2022-09-28T02:40:03,42.805,6.029,-0.041,0.0,-0.005,100.0,100.0,100.0,13.3,1505.2,325.6,-0.8,1.8,2470.875,13.29,0.041,270.0
2022-09-28T02:43:03,42.805,6.029,-0.044,-0.009,-0.004,100.0,101.0,100.0,13.3,1505.2,330.3,-0.8,1.8,2470.856,13.29,0.044,258.4
2022-09-28T02:46:03,42.805,6.029,0.002,-0.015,0.004,99.0,101.0,99.0,13.3,1505.2,331.3,-0.8,1.8,2470.855,13.29,0.015,172.4
2022-09-28T02:49:03,42.805,6.029,-0.014,-0.017,0.004,100.0,99.0,100.0,13.4,1505.2,316.7,-0.8,1.8,2470.88,13.29,0.022,219.5
2022-09-28T02:52:03,42.805,6.029,-0.015,-0.011,-0.011,101.0,100.0,100.0,13.4,1505.2,325.3,-0.8,1.8,2470.863,13.29,0.018,233.7
2022-09-28T02:55:03,42.805,6.029,-0.026,-0.004,-0.007,101.0,101.0,100.0,13.3,1505.2,327.0,-0.8,1.8,2470.884,13.29,0.026,261.3
2022-09-28T02:58:03,42.805,6.029,-0.044,0.011,-0.004,100.0,101.0,100.0,13.3,1505.2,323.1,-0.7,1.8,2470.858,13.29,0.045,284.0
2022-09-28T03:04:03,42.805,6.029,0.006,-0.005,-0.021,100.0,103.0,99.0,13.3,1505.2,327.9,-0.7,1.8,2470.919,13.29,0.007,129.8
2022-09-28T03:07:03,42.805,6.029,-0.018,-0.008,0.011,101.0,101.0,101.0,13.4,1505.2,323.9,-0.7,1.9,2470.901,13.29,0.019,246.0
2022-09-28T03:10:03,42.805,6.029,-0.026,-0.027,-0.033,102.0,101.0,99.0,13.4,1505.2,319.7,-0.7,1.8,2470.885,13.29,0.037,223.9
2022-09-28T03:13:03,42.805,6.029,-0.011,0.012,0.02,102.0,100.0,98.0,13.4,1505.2,320.5,-0.8,1.8,2470.858,13.29,0.016,317.5
2022-09-28T03:16:03,42.805,6.029,-0.023,0.001,-0.003,100.0,102.0,100.0,13.4,1505.2,322.3,-0.7,1.8,2470.915,13.29,0.023,272.5
2022-09-28T03:19:03,42.805,6.029,-0.019,0.004,0.046,102.0,101.0,99.0,13.3,1505.2,324.6,-0.7,1.8,2470.853,13.29,0.019,281.9
2022-09-28T03:22:03,42.805,6.029,0.001,-0.025,-0.022,101.0,100.0,100.0,13.4,1505.2,328.3,-0.8,1.8,2470.835,13.29,0.025,177.7
2022-09-28T03:25:03,42.805,6.029,0.0,-0.019,0.0,101.0,101.0,100.0,13.4,1505.2,328.3,-0.7,1.8,2470.893,13.29,0.019,180.0
2022-09-28T03:28:03,42.805,6.029,-0.021,-0.003,-0.004,101.0,101.0,99.0,13.3,1505.2,330.3,-0.8,1.8,2470.872,13.29,0.021,261.9
2022-09-28T03:31:03,42.805,6.029,-0.015,-0.006,0.009,98.0,101.0,100.0,13.4,1505.2,321.9,-0.7,1.8,2470.874,13.29,0.016,248.2
2022-09-28T03:34:03,42.805,6.029,-0.027,-0.002,-0.009,101.0,101.0,100.0,13.4,1505.2,323.4,-0.8,1.8,2470.862,13.29,0.027,265.8
2022-09-28T03:37:03,42.805,6.029,-0.034,0.009,0.025,101.0,101.0,100.0,13.3,1505.2,328.2,-0.8,1.8,2470.869,13.29,0.035,284.8
2022-09-28T03:40:03,42.805,6.029,0.011,-0.015,-0.006,102.0,99.0,99.0,13.4,1505.2,320.2,-0.8,1.8,2470.865,13.29,0.018,143.7
2022-09-28T03:43:03,42.805,6.029,-0.003,-0.015,-0.006,101.0,101.0,99.0,13.4,1505.2,331.8,-0.7,1.8,2470.893,13.29,0.015,191.3
2022-09-28T03:46:03,42.805,6.029,-0.027,0.003,-0.007,101.0,102.0,100.0,13.4,1505.2,325.0,-0.7,1.8,2470.873,13.29,0.027,276.3
2022-09-28T03:49:03,42.805,6.029,-0.026,0.004,-0.004,103.0,99.0,100.0,13.3,1505.2,330.6,-0.8,1.8,2470.88,13.29,0.026,278.7
2022-09-28T03:52:03,42.805,6.029,-0.04,0.008,0.029,102.0,100.0,99.0,13.3,1505.2,334.9,-0.7,1.8,2470.833,13.29,0.04,281.3
2022-09-28T03:55:03,42.805,6.029,-0.03,-0.006,-0.004,100.0,101.0,99.0,13.4,1505.2,331.2,-0.7,1.8,2470.891,13.29,0.03,258.7
2022-09-28T03:58:03,42.805,6.029,-0.025,-0.022,0.008,101.0,100.0,101.0,13.4,1505.2,331.5,-0.8,1.8,2470.894,13.29,0.033,228.7
2022-09-28T04:04:03,42.805,6.029,-0.006,-0.007,-0.004,103.0,101.0,100.0,13.4,1505.2,316.2,-0.8,1.8,2470.945,13.29,0.009,220.6
2022-09-28T04:07:03,42.805,6.029,-0.015,-0.013,0.0,100.0,101.0,100.0,13.4,1505.2,324.3,-0.8,1.8,2470.95,13.29,0.019,229.1
2022-09-28T04:10:03,42.805,6.029,-0.007,-0.012,-0.009,99.0,101.0,100.0,13.3,1505.2,332.1,-0.8,1.8,2470.916,13.29,0.013,210.3
2022-09-28T04:13:03,42.805,6.029,-0.04,-0.002,0.031,100.0,100.0,100.0,13.4,1505.2,323.7,-0.8,1.8,2470.919,13.29,0.04,267.1
2022-09-28T04:16:03,42.805,6.029,-0.035,0.002,-0.01,100.0,100.0,100.0,13.4,1505.2,318.6,-0.8,1.8,2470.901,13.29,0.035,273.3
2022-09-28T04:19:03,42.805,6.029,-0.023,0.007,0.02,102.0,100.0,99.0,13.3,1505.2,327.6,-0.8,1.8,2470.892,13.29,0.024,286.9
2022-09-28T04:22:03,42.805,6.029,-0.036,-0.002,-0.015,101.0,100.0,100.0,13.3,1505.2,327.1,-0.7,1.9,2470.892,13.29,0.036,266.8
2022-09-28T04:25:03,42.805,6.029,-0.023,0.001,0.014,102.0,100.0,100.0,13.4,1505.2,318.3,-0.8,1.8,2470.921,13.29,0.023,272.5
2022-09-28T04:28:03,42.805,6.029,-0.007,-0.016,0.039,101.0,101.0,100.0,13.4,1505.2,322.4,-0.8,1.8,2470.93,13.29,0.017,203.6
2022-09-28T04:31:03,42.805,6.029,0.0,-0.012,-0.012,102.0,100.0,100.0,13.4,1505.2,330.8,-0.8,1.8,2470.893,13.29,0.012,180.0
2022-09-28T04:34:03,42.805,6.029,-0.016,0.003,0.029,101.0,100.0,99.0,13.4,1505.2,326.1,-0.7,1.8,2470.902,13.29,0.016,280.6
2022-09-28T04:37:03,42.805,6.029,-0.017,-0.006,-0.003,102.0,101.0,100.0,13.4,1505.2,332.5,-0.8,1.8,2470.946,13.29,0.018,250.6
2022-09-28T04:40:03,42.805,6.029,-0.033,-0.001,0.0,102.0,101.0,100.0,13.4,1505.2,333.1,-0.8,1.8,2470.906,13.29,0.033,268.3
2022-09-28T04:43:03,42.805,6.029,-0.018,-0.022,-0.003,100.0,101.0,100.0,13.3,1505.2,321.8,-0.7,1.8,2470.915,13.29,0.028,219.3
2022-09-28T04:46:03,42.805,6.029,-0.046,-0.01,-0.008,100.0,101.0,99.0,13.4,1505.2,321.3,-0.7,1.8,2470.929,13.29,0.047,257.7
2022-09-28T04:49:03,42.805,6.029,-0.014,-0.01,-0.002,101.0,100.0,100.0,13.4,1505.2,326.6,-0.8,1.8,2470.931,13.29,0.017,234.5
2022-09-28T04:52:03,42.805,6.029,-0.001,0.002,0.009,100.0,100.0,99.0,13.4,1505.2,322.4,-0.8,1.8,2470.909,13.29,0.002,333.4
2022-09-28T04:55:03,42.805,6.029,-0.019,-0.033,-0.007,100.0,101.0,100.0,13.3,1505.2,321.4,-0.8,1.8,2470.939,13.29,0.038,209.9
2022-09-28T04:58:03,42.805,6.029,-0.012,-0.015,-0.005,102.0,100.0,100.0,13.3,1505.2,317.4,-0.8,1.8,2470.881,13.29,0.019,218.7
2022-09-28T05:04:03,42.805,6.029,-0.028,-0.001,0.016,101.0,100.0,100.0,13.4,1505.2,329.6,-0.8,1.8,2470.958,13.29,0.028,268.0
2022-09-28T05:07:03,42.805,6.029,-0.045,0.014,0.021,101.0,100.0,99.0,13.3,1505.2,318.3,-0.8,1.8,2470.974,13.29,0.047,287.3
2022-09-28T05:10:03,42.805,6.029,-0.009,-0.007,0.017,100.0,101.0,99.0,13.4,1505.2,317.3,-0.8,1.8,2470.971,13.29,0.011,232.1
2022-09-28T05:13:03,42.805,6.029,-0.029,0.014,0.027,103.0,101.0,100.0,13.3,1505.2,330.9,-0.8,1.9,2470.946,13.29,0.032,295.8
2022-09-28T05:16:03,42.805,6.029,-0.015,-0.019,0.008,100.0,100.0,100.0,13.4,1505.2,322.8,-0.8,1.8,2470.951,13.29,0.024,218.3
2022-09-28T05:19:03,42.805,6.029,-0.019,-0.005,0.023,100.0,100.0,100.0,13.4,1505.2,325.7,-0.7,1.8,2470.943,13.29,0.019,255.3
2022-09-28T05:22:03,42.805,6.029,-0.016,0.004,0.028,103.0,101.0,98.0,13.4,1505.2,329.3,-0.8,1.8,2470.943,13.29,0.016,284.0
2022-09-28T05:25:03,42.805,6.029,-0.052,0.021,0.034,101.0,102.0,100.0,13.4,1505.2,324.1,-0.8,1.8,2470.966,13.29,0.056,292.0
2022-09-28T05:28:03,42.805,6.029,-0.01,-0.005,0.014,99.0,101.0,100.0,13.4,1505.2,317.4,-0.8,1.8,2470.922,13.29,0.011,243.4
2022-09-28T05:31:03,42.805,6.029,-0.006,-0.012,0.013,100.0,100.0,99.0,13.3,1505.2,321.7,-0.7,1.8,2470.947,13.29,0.013,206.6
2022-09-28T05:34:03,42.805,6.029,-0.022,-0.018,0.016,100.0,101.0,100.0,13.3,1505.2,318.2,-0.7,1.8,2470.995,13.29,0.028,230.7
2022-09-28T05:37:03,42.805,6.029,-0.045,0.002,0.048,101.0,101.0,99.0,13.4,1505.2,332.2,-0.8,1.8,2470.933,13.29,0.045,272.5
2022-09-28T05:40:03,42.805,6.029,-0.025,-0.018,-0.039,101.0,101.0,100.0,13.4,1505.2,322.6,-0.7,1.8,2470.964,13.29,0.03,234.2
2022-09-28T05:43:03,42.805,6.029,-0.017,-0.02,0.0,98.0,102.0,101.0,13.4,1505.2,320.6,-0.8,1.8,2471.003,13.29,0.026,220.4
2022-09-28T05:46:03,42.805,6.029,-0.019,-0.002,0.031,101.0,99.0,101.0,13.4,1505.2,320.2,-0.8,1.8,2470.951,13.29,0.019,264.0
2022-09-28T05:49:03,42.805,6.029,-0.069,-0.01,-0.022,100.0,100.0,99.0,13.4,1505.2,321.8,-0.8,1.8,2470.967,13.29,0.069,261.8
2022-09-28T05:52:03,42.805,6.029,-0.035,0.0,0.015,100.0,101.0,99.0,13.4,1505.2,322.2,-0.8,1.8,2471.012,13.29,0.035,270.0
2022-09-28T05:55:03,42.805,6.029,-0.006,-0.009,0.012,99.0,100.0,99.0,13.3,1505.2,317.0,-0.8,1.8,2471.011,13.29,0.01,213.7
2022-09-28T05:58:03,42.805,6.029,-0.001,-0.009,0.025,99.0,102.0,99.0,13.4,1505.2,328.1,-0.8,1.8,2470.988,13.29,0.009,186.3
2022-09-28T06:04:03,42.805,6.029,-0.036,0.016,0.001,100.0,101.0,99.0,13.4,1505.2,331.2,-0.8,1.8,2471.052,13.29,0.039,294.0
2022-09-28T06:07:03,42.805,6.029,-0.035,-0.002,-0.007,100.0,101.0,100.0,13.4,1505.2,332.5,-0.8,1.8,2470.997,13.29,0.035,266.7
2022-09-28T06:10:03,42.805,6.029,-0.034,0.01,0.038,100.0,101.0,100.0,13.4,1505.2,328.6,-0.7,1.8,2471.003,13.29,0.035,286.4
2022-09-28T06:13:03,42.805,6.029,-0.025,0.012,0.034,102.0,99.0,101.0,13.3,1505.2,328.6,-0.8,1.8,2471.041,13.29,0.027,295.6
2022-09-28T06:16:03,42.805,6.029,-0.012,-0.018,0.009,102.0,101.0,99.0,13.3,1505.2,327.3,-0.7,1.8,2471.014,13.29,0.021,213.7
2022-09-28T06:19:03,42.805,6.029,-0.017,0.005,-0.007,101.0,101.0,100.0,13.4,1505.2,327.0,-0.7,1.8,2470.996,13.29,0.017,286.4
2022-09-28T06:22:03,42.805,6.029,-0.006,0.008,0.019,101.0,100.0,100.0,13.4,1505.2,319.0,-0.8,1.8,2471.003,13.29,0.01,323.1
2022-09-28T06:25:03,42.805,6.029,-0.011,0.004,0.016,99.0,101.0,100.0,13.3,1505.2,320.9,-0.7,1.8,2470.971,13.29,0.011,290.0
2022-09-28T06:28:03,42.805,6.029,-0.031,-0.013,-0.016,101.0,102.0,99.0,13.4,1505.2,320.9,-0.8,1.8,2471.046,13.29,0.033,247.3
2022-09-28T06:31:03,42.805,6.029,-0.008,-0.01,-0.01,100.0,101.0,100.0,13.4,1505.2,328.4,-0.8,1.8,2471.037,13.29,0.012,218.7
2022-09-28T06:34:03,42.805,6.029,-0.025,0.007,0.025,102.0,101.0,99.0,13.4,1505.2,326.4,-0.8,1.8,2471.009,13.29,0.025,285.6
2022-09-28T06:37:03,42.805,6.029,-0.027,-0.018,-0.015,103.0,100.0,100.0,13.4,1505.2,320.7,-0.7,1.8,2470.988,13.29,0.032,236.3
2022-09-28T06:40:03,42.805,6.029,-0.025,0.014,0.008,100.0,101.0,100.0,13.4,1505.2,328.6,-0.8,1.8,2471.007,13.29,0.028,299.3
2022-09-28T06:43:03,42.805,6.029,-0.033,0.009,0.015,100.0,101.0,101.0,13.4,1505.2,319.7,-0.8,1.8,2471.034,13.29,0.034,285.3
2022-09-28T06:46:03,42.805,6.029,-0.052,-0.002,0.017,101.0,101.0,99.0,13.4,1505.2,321.1,-0.8,1.8,2471.021,13.29,0.052,267.8
2022-09-28T06:49:03,42.805,6.029,-0.019,0.001,0.008,100.0,101.0,100.0,13.3,1505.2,320.3,-0.7,1.8,2471.048,13.29,0.019,273.0
2022-09-28T06:52:03,42.805,6.029,-0.027,0.006,0.01,102.0,99.0,101.0,13.3,1505.2,319.4,-0.7,1.8,2471.014,13.29,0.027,282.5
2022-09-28T06:55:03,42.805,6.029,-0.009,0.007,-0.013,101.0,100.0,99.0,13.4,1505.2,325.7,-0.7,1.9,2471.009,13.29,0.011,307.9
2022-09-28T06:58:03,42.805,6.029,-0.028,0.026,0.006,101.0,100.0,100.0,13.4,1505.2,322.1,-0.8,1.8,2471.037,13.29,0.038,312.9
2022-09-28T07:04:03,42.805,6.029,-0.034,-0.01,-0.018,103.0,100.0,100.0,13.4,1505.2,320.9,-0.7,1.8,2471.065,13.29,0.035,253.6
2022-09-28T07:07:03,42.805,6.029,-0.019,0.017,0.014,102.0,102.0,100.0,13.4,1505.2,327.9,-0.8,1.8,2471.081,13.29,0.025,311.8
2022-09-28T07:10:03,42.805,6.029,-0.028,-0.002,0.022,100.0,101.0,100.0,13.4,1505.2,323.7,-0.8,1.8,2471.047,13.29,0.028,265.9
2022-09-28T07:13:03,42.805,6.029,-0.015,0.008,0.007,101.0,101.0,99.0,13.4,1505.2,321.0,-0.7,1.8,2471.078,13.29,0.017,298.1
2022-09-28T07:16:03,42.805,6.029,-0.037,0.0,-0.018,101.0,101.0,99.0,13.4,1505.2,330.5,-0.8,1.8,2471.057,13.29,0.037,270.0
2022-09-28T07:19:03,42.805,6.029,-0.031,-0.005,0.016,99.0,101.0,100.0,13.3,1505.2,329.6,-0.8,1.8,2471.033,13.29,0.031,260.8
2022-09-28T07:22:03,42.805,6.029,-0.022,0.003,-0.002,102.0,100.0,100.0,13.4,1505.2,323.2,-0.8,1.8,2471.043,13.29,0.022,277.8
2022-09-28T07:25:03,42.805,6.029,-0.029,0.008,0.004,100.0,101.0,100.0,13.4,1505.2,322.4,-0.8,1.8,2471.044,13.29,0.03,285.4
2022-09-28T07:28:03,42.805,6.029,-0.026,-0.01,0.019,101.0,101.0,100.0,13.3,1505.2,327.4,-0.8,1.8,2471.053,13.29,0.027,249.0
2022-09-28T07:31:03,42.805,6.029,-0.027,-0.011,0.009,101.0,100.0,100.0,13.4,1505.2,329.1,-0.8,1.8,2471.056,13.29,0.029,247.8
2022-09-28T07:34:03,42.805,6.029,-0.009,-0.025,-0.019,100.0,100.0,100.0,13.4,1505.2,323.0,-0.7,1.8,2471.057,13.29,0.026,199.8
2022-09-28T07:37:03,42.805,6.029,-0.037,0.012,0.014,100.0,100.0,100.0,13.4,1505.2,327.9,-0.8,1.8,2471.048,13.29,0.038,288.0
2022-09-28T07:40:03,42.805,6.029,-0.022,0.009,0.014,101.0,100.0,100.0,13.4,1505.2,331.6,-0.8,1.8,2471.042,13.29,0.023,292.2
2022-09-28T07:43:03,42.805,6.029,-0.015,-0.024,-0.009,102.0,101.0,100.0,13.4,1505.2,326.8,-0.8,1.8,2471.041,13.29,0.028,212.0
2022-09-28T07:46:03,42.805,6.029,-0.024,-0.019,0.003,100.0,101.0,99.0,13.4,1505.2,329.8,-0.8,1.9,2471.09,13.29,0.03,231.6
2022-09-28T07:49:03,42.805,6.029,0.002,0.0,0.006,101.0,100.0,100.0,13.4,1505.2,325.7,-0.8,1.8,2471.075,13.29,0.002,90.0
2022-09-28T07:52:03,42.805,6.029,-0.044,-0.013,-0.048,101.0,101.0,99.0,13.4,1505.2,330.4,-0.7,1.8,2471.076,13.29,0.045,253.5
2022-09-28T07:55:03,42.805,6.029,-0.015,-0.016,0.02,101.0,101.0,100.0,13.3,1505.2,319.8,-0.8,1.8,2471.072,13.29,0.021,223.1
2022-09-28T07:58:03,42.805,6.029,-0.036,0.022,0.021,101.0,99.0,100.0,13.3,1505.2,329.3,-0.8,1.8,2471.044,13.29,0.042,301.4
2022-09-28T08:04:04,42.805,6.029,-0.002,-0.004,0.01,101.0,101.0,99.0,13.4,1505.2,319.8,-0.7,1.8,2471.106,13.29,0.004,206.6
2022-09-28T08:07:03,42.805,6.029,-0.024,0.0,0.019,102.0,102.0,99.0,13.4,1505.2,316.2,-0.8,1.8,2471.085,13.29,0.024,270.0
2022-09-28T08:10:03,42.805,6.029,-0.008,0.012,0.033,101.0,101.0,100.0,13.3,1505.2,329.9,-0.7,1.8,2471.105,13.29,0.014,326.3
2022-09-28T08:13:03,42.805,6.029,-0.034,0.0,-0.001,100.0,101.0,100.0,13.4,1505.2,319.6,-0.8,1.8,2471.12,13.29,0.034,270.0
2022-09-28T08:16:03,42.805,6.029,-0.002,0.004,0.021,101.0,101.0,101.0,13.4,1505.2,328.2,-0.8,1.8,2471.096,13.29,0.004,333.4
2022-09-28T08:19:03,42.805,6.029,-0.051,0.019,0.001,102.0,102.0,98.0,13.3,1505.2,330.2,-0.7,1.8,2471.092,13.29,0.054,290.4
2022-09-28T08:22:03,42.805,6.029,-0.043,0.009,-0.003,100.0,101.0,100.0,13.4,1505.2,324.1,-0.8,1.8,2471.077,13.29,0.043,281.8
2022-09-28T08:25:03,42.805,6.029,-0.043,0.002,0.013,100.0,101.0,99.0,13.3,1505.2,319.0,-0.8,1.8,2471.096,13.29,0.043,272.7
2022-09-28T08:28:03,42.805,6.029,-0.029,0.014,0.007,100.0,101.0,100.0,13.4,1505.2,330.3,-0.8,1.8,2471.098,13.29,0.032,295.8
2022-09-28T08:31:03,42.805,6.029,-0.014,-0.007,0.006,101.0,101.0,100.0,13.4,1505.2,328.0,-0.8,1.8,2471.083,13.29,0.015,243.4
2022-09-28T08:34:03,42.805,6.029,-0.005,0.016,0.014,100.0,101.0,100.0,13.3,1505.2,322.2,-0.8,1.8,2471.11,13.29,0.016,342.6
2022-09-28T08:37:03,42.805,6.029,-0.013,0.0,-0.002,101.0,101.0,100.0,13.3,1505.2,325.5,-0.8,1.8,2471.046,13.29,0.013,270.0
2022-09-28T08:40:03,42.805,6.029,-0.024,0.004,-0.002,101.0,101.0,100.0,13.4,1505.2,318.6,-0.7,1.8,2471.098,13.29,0.024,279.5
2022-09-28T08:43:03,42.805,6.029,-0.028,-0.027,0.0,100.0,101.0,100.0,13.4,1505.2,326.3,-0.8,1.8,2471.067,13.29,0.038,226.0
2022-09-28T08:46:03,42.805,6.029,-0.039,0.004,0.004,100.0,101.0,100.0,13.4,1505.2,325.7,-0.8,1.8,2471.091,13.29,0.039,275.9
2022-09-28T08:49:03,42.805,6.029,-0.02,0.026,0.038,101.0,101.0,100.0,13.4,1505.2,331.1,-0.7,1.8,2471.054,13.29,0.032,322.4
2022-09-28T08:52:03,42.805,6.029,0.002,-0.022,-0.016,100.0,102.0,100.0,13.3,1505.2,322.5,-0.8,1.8,2471.066,13.29,0.022,174.8
2022-09-28T08:55:03,42.805,6.029,-0.004,-0.015,0.0,100.0,101.0,101.0,13.4,1505.2,326.5,-0.8,1.8,2471.071,13.29,0.015,194.9
2022-09-28T08:58:03,42.805,6.029,-0.02,-0.009,0.008,100.0,102.0,99.0,13.3,1505.2,328.6,-0.7,1.8,2471.076,13.29,0.021,245.8
2022-09-28T09:04:04,42.805,6.029,-0.026,0.004,0.004,101.0,101.0,100.0,13.3,1505.2,321.9,-0.8,1.8,2471.119,13.29,0.026,278.7
2022-09-28T09:07:03,42.805,6.029,-0.029,-0.006,-0.013,101.0,100.0,101.0,13.4,1505.2,332.5,-0.7,1.8,2471.094,13.29,0.029,258.3
2022-09-28T09:10:03,42.805,6.029,-0.012,-0.013,0.022,101.0,101.0,100.0,13.4,1505.2,325.4,-0.8,1.8,2471.122,13.29,0.017,222.7
2022-09-28T09:13:03,42.805,6.029,-0.015,0.013,0.028,101.0,102.0,100.0,13.4,1505.2,327.2,-0.7,1.8,2471.088,13.29,0.019,310.9
2022-09-28T09:16:03,42.805,6.029,-0.027,-0.004,-0.006,100.0,102.0,100.0,13.4,1505.2,324.8,-0.8,1.9,2471.105,13.29,0.027,261.6
2022-09-28T09:19:03,42.805,6.029,-0.031,-0.002,0.001,101.0,100.0,100.0,13.4,1505.2,327.5,-0.8,1.8,2471.122,13.29,0.031,266.3
2022-09-28T09:22:03,42.805,6.029,-0.011,-0.014,-0.023,100.0,100.0,100.0,13.4,1505.2,320.7,-0.8,1.8,2471.095,13.29,0.017,218.2
2022-09-28T09:25:03,42.805,6.029,-0.013,-0.004,-0.027,101.0,101.0,100.0,13.4,1505.2,327.0,-0.7,1.8,2471.084,13.29,0.013,252.9
2022-09-28T09:28:03,42.805,6.029,-0.023,-0.004,0.01,101.0,101.0,100.0,13.4,1505.2,321.2,-0.7,1.8,2471.108,13.29,0.023,260.1
2022-09-28T09:31:03,42.805,6.029,-0.036,0.007,0.026,100.0,101.0,101.0,13.4,1505.2,324.4,-0.8,1.8,2471.084,13.29,0.036,281.0
2022-09-28T09:34:03,42.805,6.029,-0.024,-0.016,-0.02,102.0,102.0,99.0,13.4,1505.2,322.0,-0.8,1.8,2471.063,13.29,0.028,236.3
2022-09-28T09:37:03,42.805,6.029,-0.002,-0.011,-0.017,100.0,101.0,100.0,13.4,1505.2,330.5,-0.8,1.8,2471.028,13.29,0.011,190.3
2022-09-28T09:40:03,42.805,6.029,-0.038,-0.022,-0.028,102.0,100.0,99.0,13.3,1505.2,324.8,-0.7,1.9,2471.085,13.29,0.043,239.9
2022-09-28T09:43:03,42.805,6.029,-0.019,-0.006,0.008,101.0,99.0,100.0,13.3,1505.2,324.0,-0.7,1.8,2471.052,13.29,0.019,252.5
2022-09-28T09:46:03,42.805,6.029,0.004,-0.007,-0.005,102.0,101.0,101.0,13.4,1505.2,318.7,-0.8,1.8,2471.096,13.29,0.008,150.3
2022-09-28T09:49:03,42.805,6.029,0.001,-0.015,-0.021,101.0,103.0,99.0,13.4,1505.2,330.6,-0.8,1.8,2471.074,13.29,0.015,176.2
2022-09-28T09:52:03,42.805,6.029,0.005,-0.001,0.025,102.0,100.0,99.0,13.3,1505.2,326.4,-0.8,1.8,2471.026,13.29,0.005,101.3
2022-09-28T09:55:03,42.805,6.029,-0.006,-0.011,0.011,101.0,101.0,100.0,13.4,1505.2,330.6,-0.8,1.8,2471.059,13.29,0.012,208.6